Location: Contre
(49.7477°N, 2.0963°E)
Time: 13:05:09
(UTC+00:00)

Meteor 2-12 Rocket - Pass Details

Date: 08 August 2024
Orbit: 936 x 956 km, 82.5° (Epoch: 14 September)

Event Time Altitude Azimuth Distance (km) Brightness Sun altitude
Rises 00:00:47 0° 354° (N) 3,611 8.9 -24.2°
Reaches altitude 10° 00:03:28 10° 2° (N) 2,664 7.9 -24.2°
Maximum altitude 00:09:07 39° 70° (ENE) 1,382 5.4 -24.1°
Enters shadow 00:11:57 25° 120° (ESE) 1,790 5.6 -24.1°
